Regional Weather Roundup
Issued by NWS

Home | Current Version | Previous Version | Text Only | Print | Product List | Glossary On
Versions: 1 2 3 4 5 6 7 8 9 10 11 12 13 14 15 16 17 18 19 20 21 22 23 24 25 26 27 28 29 30 31 32 33 34 35 36 37 38 39 40 41 42 43 44 45 46 47 48 49 50
000
ASUS43 KLSX 201559
RWRMO

WEATHER SUMMARY FOR MISSOURI
NATIONAL WEATHER SERVICE SPRINGFIELD MO
1100 AM CDT MON OCT 20 2014

NOTE: "FAIR" INDICATES FEW OR NO CLOUDS BELOW 12,000 FEET WITH NO
       SIGNIFICANT WEATHER AND/OR OBSTRUCTIONS TO VISIBILITY.
       CURRENT SKY AND/OR WEATHER CONDITIONS ARE NOT AVAILABLE FOR
       CHILLICOTHE AND FARMINGTON.

MOZ001>031-035>038-043-044-053-054-201700-
...NORTHERN AND WESTERN MISSOURI...

CITY           SKY/WX    TMP DP  RH WIND       PRES   REMARKS
KANSAS CTY INT MOSUNNY   64  51  62 NE6       30.07R
KANSAS C DTWN  SUNNY     66  52  60 N7        30.06S
LEE`S SUMMIT   SUNNY     64  52  64 N9        30.07R
ST JOSEPH      SUNNY     65  47  52 NE6       30.08R
CHILLICOTHE      N/A     65  47  52 NE7       30.06S
KIRKSVILLE     SUNNY     63  48  58 N9        30.04S

$$
MOZ066>068-077>081-088>096-101>105-201700-
...SOUTHWEST MISSOURI...

CITY           SKY/WX    TMP DP  RH WIND       PRES   REMARKS
SPRINGFIELD    CLOUDY    64  53  67 W10       30.07S
JOPLIN         SUNNY     65  54  67 SW10      30.09S

$$
MOZ032>034-039>042-045>050-055>058-069>072-201700-
...CENTRAL MISSOURI...

CITY           SKY/WX    TMP DP  RH WIND       PRES   REMARKS
COLUMBIA       SUNNY     65  54  67 NW7       30.04R
JEFFERSON CITY SUNNY     65  52  62 NW9       30.03S
ROLLA          SUNNY     64  53  67 W10       30.02S
SEDALIA        SUNNY     65  53  65 NW5       30.06R
OSAGE BEACH    SUNNY     66  54  63 W8        30.05R

$$
MOZ051-052-059>065-201700-
...EAST CENTRAL MISSOURI...

CITY           SKY/WX    TMP DP  RH WIND       PRES   REMARKS
ST LOUIS INTL  MOSUNNY   67  53  61 NW10      29.99S
SPIRIT OF STL  SUNNY     66  53  63 MISG      29.99S
ST CHARLES     SUNNY     64  52  64 W9        29.98S

$$
MOZ072>076-082>087-097>100-106>115-201700-
...SOUTH CENTRAL AND SOUTHEAST MISSOURI...

CITY           SKY/WX    TMP DP  RH WIND       PRES   REMARKS
CAPE GIRARDEAU MOSUNNY   65  51  60 SW7       30.02F
FARMINGTON     MOSUNNY   66  52  59 W7        30.03S
POPLAR BLUFF   PTSUNNY   62  49  62 SW10      30.03F
WEST PLAINS    PTSUNNY   67  53  61 VRB7      30.07S

$$



USA.gov is the U.S. government's official web portal to all federal, state and local government web resources and services.